Miles City, MT

8:33 PM MDT on July 29, 2016 (GMT -0600)
Wiley

Weather History for KMLS - January, 2013

Change the Weather History Date:

Monday, January 21, 2013

  Actual Average Record
Temperature  
Mean Temperature 9 °F 20 °F  
Max Temperature 14 °F 30 °F 53 °F (1981)
Min Temperature 3 °F 9 °F -30 °F (1949)
Degree Days  
Heating Degree Days 56 45  
Month to date heating degree days 924 964  
Since 1 July heating degree days 3834 4148  
Cooling Degree Days 0 0  
Month to date cooling degree days 0 0  
Year to date cooling degree days 0 0  
Moisture  
Dew Point 3 °F    
Average Humidity 75    
Maximum Humidity 87    
Minimum Humidity 62    
Precipitation  
Precipitation 0.01 in 0.01 in 0.15 in (1952)
Month to date precipitation 0.07 0.24  
Year to date precipitation 0.07 0.24  
Sea Level Pressure  
Sea Level Pressure 30.32 in    
Wind  
Wind Speed 4 mph (ESE)    
Max Wind Speed 9 mph    
Max Gust Speed 12 mph    
Visibility 6 miles    
Events Snow    
T = Trace of Precipitation, MM = Missing Value Source: NWS Daily Summary

Daily Weather History Graph

Daily Weather History Graph

Search for Another Location

Airport or City:

Trip Planner

Search our weather history database for the weather conditions in past years. The results will help you decide how hot, cold, wet, or windy it might be!

Date:

Astronomy

Jan. 21, 2013 Rise Set
Actual Time 7:38 AM MST 4:52 PM MST
Civil Twilight 7:05 AM MST 5:25 PM MST
Nautical Twilight 6:28 AM MST 6:02 PM MST
Astronomical Twilight 5:52 AM MST 6:38 PM MST
Moon 12:32 PM MST (1/21) 3:09 AM MST (1/21)
Length of Visible Light 10h 20m
Length of Day
9h 14m
Waxing Gibbous, 75% of the Moon is Illuminated
Jan 21
Waxing Gibbous
Jan 26
Full
Feb 3
Last Quarter
Feb 10
New
Feb 17
First Quarter

Hourly Weather History & Observations

Time (MST) Temp. Windchill Dew Point Humidity Pressure Visibility Wind Dir Wind Speed Gust Speed Precip Events Conditions
12:53 AM 3.0 °F - -7.1 °F 63% 30.53 in 10.0 mi Calm Calm - N/A   Overcast
1:53 AM 3.9 °F - -7.1 °F 60% 30.51 in 10.0 mi Calm Calm - N/A   Overcast
2:53 AM 3.0 °F - -4.0 °F 73% 30.50 in 2.5 mi Calm Calm - 0.00 in Snow Light Snow
3:00 AM 3.2 °F - -2.2 °F 78% 30.33 in 1.8 mi Calm Calm - 0.00 in Snow Light Snow
3:53 AM 3.0 °F -6.4 °F -2.0 °F 80% 30.49 in 1.5 mi South 4.6 mph - 0.00 in Snow Light Snow
4:28 AM 3.2 °F -6.2 °F -0.4 °F 85% 30.31 in 2.5 mi South 4.6 mph - 0.01 in Snow Light Snow
4:30 AM 3.2 °F -4.2 °F -0.4 °F 85% 30.31 in 3.0 mi South 3.5 mph - 0.01 in Snow Light Snow
4:53 AM 3.9 °F -3.4 °F -0.9 °F 80% 30.47 in 9.0 mi SSE 3.5 mph - 0.01 in   Overcast
5:53 AM 5.0 °F - -0.0 °F 80% 30.48 in 5.0 mi Calm Calm - 0.00 in Snow Light Snow
6:53 AM 5.0 °F -2.1 °F 1.0 °F 84% 30.46 in 4.0 mi ESE 3.5 mph - 0.00 in Snow Light Snow
7:53 AM 6.1 °F - 1.0 °F 80% 30.44 in 5.0 mi Calm Calm - 0.00 in Snow Light Snow
8:48 AM 6.8 °F - 1.4 °F 79% 30.27 in 2.0 mi Calm Calm - 0.00 in Snow Light Snow
8:53 AM 7.0 °F - 1.0 °F 77% 30.44 in 4.0 mi Calm Calm - 0.00 in Snow Light Snow
9:53 AM 8.1 °F - 1.9 °F 76% 30.45 in 10.0 mi Calm Calm - 0.00 in   Overcast
10:53 AM 9.0 °F 0.6 °F 3.0 °F 77% 30.43 in 7.0 mi ESE 4.6 mph - 0.00 in Snow Light Snow
11:49 AM 10.4 °F 0.8 °F 3.2 °F 73% 30.22 in 1.8 mi SSE 5.8 mph - 0.00 in Snow Light Snow
11:53 AM 10.0 °F 1.8 °F 3.9 °F 76% 30.39 in 1.8 mi SE 4.6 mph - 0.00 in Snow Light Snow
12:03 PM 10.4 °F 4.0 °F 3.2 °F 73% 30.22 in 2.0 mi SSE 3.5 mph - 0.00 in Snow Light Snow
12:10 PM 10.4 °F 2.2 °F 5.0 °F 79% 30.22 in 1.2 mi SSE 4.6 mph - 0.00 in Snow Light Snow
12:53 PM 10.9 °F 1.4 °F 5.0 °F 77% 30.36 in 1.5 mi SSE 5.8 mph - 0.00 in Snow Light Snow
1:07 PM 10.4 °F 0.8 °F 5.0 °F 79% 30.18 in 2.5 mi SE 5.8 mph - 0.00 in Snow Light Snow
1:25 PM 12.2 °F 2.9 °F 6.8 °F 79% 30.17 in 2.5 mi SE 5.8 mph - 0.00 in Snow Light Snow
1:29 PM 12.2 °F 2.9 °F 6.8 °F 79% 30.17 in 3.0 mi SE 5.8 mph - 0.00 in Snow Light Snow
1:53 PM 12.0 °F 1.5 °F 6.1 °F 77% 30.32 in 10.0 mi SSE 6.9 mph - 0.00 in   Overcast
2:16 PM 12.2 °F 1.7 °F 6.8 °F 79% 30.15 in 8.0 mi SE 6.9 mph - N/A   Mostly Cloudy
2:26 PM 12.2 °F 6.1 °F 6.8 °F 79% 30.16 in 10.0 mi SE 3.5 mph - N/A   Mostly Cloudy
2:53 PM 12.9 °F 3.8 °F 6.1 °F 74% 30.31 in 10.0 mi SE 5.8 mph - N/A   Overcast
3:53 PM 12.0 °F 2.7 °F 7.0 °F 80% 30.30 in 10.0 mi ENE 5.8 mph - N/A   Mostly Cloudy
4:53 PM 10.9 °F 0.2 °F 7.0 °F 84% 30.27 in 10.0 mi NE 6.9 mph - N/A   Overcast
5:53 PM 12.0 °F 1.5 °F 7.0 °F 80% 30.26 in 10.0 mi NE 6.9 mph - N/A   Overcast
6:53 PM 12.0 °F 4.1 °F 7.0 °F 80% 30.25 in 10.0 mi NNE 4.6 mph - N/A   Overcast
7:53 PM 10.9 °F 1.4 °F 6.1 °F 81% 30.25 in 10.0 mi NNE 5.8 mph - N/A   Scattered Clouds
8:53 PM 10.9 °F -1.8 °F 6.1 °F 81% 30.24 in 10.0 mi NE 9.2 mph - N/A   Overcast
9:53 PM 10.9 °F 0.2 °F 6.1 °F 81% 30.22 in 10.0 mi NE 6.9 mph - N/A   Mostly Cloudy
10:53 PM 10.0 °F -0.9 °F 5.0 °F 80% 30.22 in 10.0 mi NNE 6.9 mph - N/A   Mostly Cloudy
11:53 PM 9.0 °F -3.2 °F 5.0 °F 84% 30.20 in 10.0 mi NNE 8.1 mph - N/A   Mostly Cloudy